Flag for United Kingdom Weather past 2 weeks in Greenwich Borough, England, United Kingdom

Now
66 °F

Passing clouds.


Feels Like: 66 °F
Forecast: 63 / 74 °F
Wind: 7 mph from Southwest

Location: Biggin Hill Airport

Current Time: Jul 31, 2014 at 9:28:15 PM

Latest Report: Jul 31, 2014 at 8:50 PM


Visibility: N/A

Pressure: 29.92 "Hg

Humidity: 73%

Dew point: 57 °F

Location of Greenwich BoroughLocation

Historic Weather in Greenwich Borough — Graph

°F

Greenwich Borough temperature yesterday

Maximum temperature yesterday: 75 °F (at 6:50 PM)
Minimum temperature yesterday: 59 °F (at 7:20 AM)
Average temperature yesterday: 68 °F

Past Weeks' High & Low Weather Summary

 TemperatureHumidityPressure
High82 °F (Jul 18, 1:20 PM)94% (Jul 18, 7:20 AM)30.21 "Hg (Jul 18, 7:20 AM)
Low57 °F (Jul 22, 7:20 AM)34% (Jul 24, 5:50 PM)29.74 "Hg (Jul 19, 5:50 PM)
Average70 °F63%30.01 "Hg
* Reported Jul 16 8:20 PM — Jul 31 8:20 PM, Greenwich Borough, Weather by CustomWeather, © 2014

Note: Actual official high and low records may vary slightly from our data, if they occured in-between our weather recording intervals... More about our weather records

Advertising

Greenwich Borough weather history for previous 24 hours

 ConditionsComfort  
Time TempWeatherWind HumidityBarometerVisibility
8:20 PM
Jul 31
66 °FPassing clouds.7 mph73%29.92 "HgN/A
7:50 PM68 °FPassing clouds.8 mph69%29.92 "HgN/A
7:20 PM68 °FPassing clouds.9 mph69%29.92 "HgN/A
6:50 PM68 °FPassing clouds.9 mph69%29.92 "HgN/A
6:20 PM68 °FPassing clouds.12 mph69%29.92 "HgN/A
5:50 PM70 °FPassing clouds.10 mph60%29.92 "HgN/A
5:20 PM70 °FPassing clouds.13 mph60%29.92 "HgN/A
4:50 PM73 °FPassing clouds.9 mph47%29.92 "HgN/A
4:20 PM72 °FPassing clouds.8 mph50%29.92 "HgN/A
3:50 PM72 °FPassing clouds.8 mph50%29.95 "HgN/A
3:20 PM72 °FPassing clouds.8 mph50%29.95 "HgN/A
2:20 PM73 °FPassing clouds.9 mph47%29.95 "HgN/A
1:50 PM72 °FScattered clouds.8 mph50%29.95 "HgN/A
1:20 PM70 °FScattered clouds.9 mph53%29.95 "HgN/A
12:50 PM70 °FScattered clouds.10 mph53%29.95 "HgN/A
12:20 PM68 °FScattered clouds.10 mph56%29.98 "HgN/A
11:50 AM68 °FScattered clouds.9 mph56%29.98 "HgN/A
11:20 AM68 °FScattered clouds.12 mph56%29.98 "HgN/A
10:50 AM66 °FPassing clouds.9 mph60%29.98 "HgN/A
10:20 AM66 °FPassing clouds.9 mph60%29.98 "HgN/A
9:50 AM64 °FPassing clouds.8 mph64%29.98 "HgN/A
9:20 AM64 °FPassing clouds.7 mph64%29.98 "HgN/A
8:50 AM64 °FSunny.8 mph64%29.98 "Hg10 mi
8:20 AM63 °FSunny.7 mph73%29.98 "Hg10 mi
7:50 AM61 °FSunny.5 mph77%29.98 "Hg10 mi
7:20 AM59 °FSunny.3 mph82%29.98 "Hg10 mi
Weather by CustomWeather, © 2014

See weather overviewHow to use our weather pages